• In Czech Republic
  • List of Countries
  • For 7 days
  • Water Temperature
  • Satellite Maps
  • Weather Map
  • Weather Widgets
  • user-avatar
    Login

    Hourly Weather Bekescsaba

    Today, 21 February, Wednesday

    Time Temperature Precipitation Wind Pressure Humidity
    00:00 +2°C° 0.6 mm 2 mps 752 mmHg 94%
    01:00 +2°C° 0.6 mm 2 mps 752 mmHg 94%
    02:00 +2°C° 0.4 mm 2 mps 752 mmHg 94%
    03:00 +2°C° 0.4 mm 2 mps 752 mmHg 93%
    04:00 +2°C° 0.4 mm 2 mps 752 mmHg 93%
    05:00 +2°C° 0.4 mm 2 mps 752 mmHg 92%
    06:00 +2°C° 0.4 mm 2 mps 752 mmHg 92%
    07:00 +2°C° 0.4 mm 2 mps 752 mmHg 92%
    08:00 +2°C° 0.3 mm 2 mps 752 mmHg 91%
    09:00 +2°C° 0.3 mm 2 mps 752 mmHg 91%
    10:00 +3°C° 0.3 mm 2 mps 752 mmHg 91%
    11:00 +3°C° 0.2 mm 2 mps 752 mmHg 89%
    12:00 +3°C° 0.2 mm 3 mps 752 mmHg 88%
    13:00 +3°C° 0.2 mm 3 mps 752 mmHg 87%
    14:00 +3°C° 0.1 mm 3 mps 752 mmHg 87%
    15:00 +3°C° 0.1 mm 3 mps 752 mmHg 86%
    16:00 +4°C° 0.1 mm 3 mps 751 mmHg 86%
    17:00 +3°C° 0 mm 3 mps 752 mmHg 86%
    18:00 +3°C° 0 mm 4 mps 752 mmHg 86%
    19:00 +1°C° 0 mm 4 mps 752 mmHg 85%
    20:00 +1°C° 0 mm 4 mps 752 mmHg 85%
    21:00 0°C° 0 mm 4 mps 752 mmHg 85%
    22:00 -1°C° 0 mm 5 mps 752 mmHg 84%
    23:00 -1°C° 0 mm 5 mps 752 mmHg 84%

    Tomorrow, 22 February, Thursday

    Time Temperature Precipitation Wind Pressure Humidity
    00:00 -1°C° 0 mm 5 mps 752 mmHg 85%
    01:00 -1°C° 0 mm 5 mps 752 mmHg 85%
    02:00 -1°C° 0 mm 5 mps 752 mmHg 85%
    03:00 -1°C° 0 mm 5 mps 752 mmHg 85%
    04:00 -1°C° 0 mm 5 mps 751 mmHg 85%
    05:00 -1°C° 0 mm 4 mps 751 mmHg 85%
    06:00 -1°C° 0 mm 4 mps 751 mmHg 85%
    07:00 -1°C° 0 mm 4 mps 751 mmHg 85%
    08:00 -1°C° 0 mm 4 mps 751 mmHg 82%
    09:00 0°C° 0 mm 4 mps 751 mmHg 80%
    10:00 +1°C° 0 mm 4 mps 752 mmHg 77%
    11:00 +3°C° 0.1 mm 4 mps 751 mmHg 76%
    12:00 +4°C° 0.1 mm 4 mps 751 mmHg 74%
    13:00 +5°C° 0.1 mm 3 mps 751 mmHg 72%
    14:00 +5°C° 0.2 mm 3 mps 751 mmHg 74%
    15:00 +5°C° 0.2 mm 3 mps 751 mmHg 76%
    16:00 +5°C° 0.2 mm 3 mps 751 mmHg 77%
    17:00 +4°C° 0.1 mm 3 mps 751 mmHg 79%
    18:00 +4°C° 0.1 mm 3 mps 752 mmHg 80%
    19:00 +3°C° 0.1 mm 3 mps 752 mmHg 81%
    20:00 +3°C° 0 mm 3 mps 752 mmHg 82%
    21:00 +3°C° 0 mm 3 mps 752 mmHg 82%
    22:00 +2°C° 0 mm 3 mps 752 mmHg 82%
    23:00 +2°C° 0 mm 3 mps 752 mmHg 83%

    Day after tomorrow, 23 February, Friday

    Time Temperature Precipitation Wind Pressure Humidity
    00:00 +2°C° 0 mm 3 mps 753 mmHg 84%
    01:00 +1°C° 0 mm 3 mps 753 mmHg 85%
    02:00 +1°C° 0 mm 3 mps 752 mmHg 85%
    03:00 +1°C° 0 mm 3 mps 752 mmHg 85%
    04:00 +1°C° 0 mm 3 mps 752 mmHg 85%
    05:00 0°C° 0 mm 3 mps 752 mmHg 86%
    06:00 0°C° 0 mm 3 mps 753 mmHg 86%
    07:00 0°C° 0 mm 3 mps 753 mmHg 86%
    08:00 0°C° 0 mm 4 mps 753 mmHg 82%
    09:00 +1°C° 0 mm 4 mps 753 mmHg 78%
    10:00 +4°C° 0 mm 4 mps 753 mmHg 74%
    11:00 +4°C° 0 mm 4 mps 753 mmHg 71%
    12:00 +5°C° 0 mm 4 mps 753 mmHg 68%
    13:00 +6°C° 0 mm 4 mps 753 mmHg 65%
    14:00 +6°C° 0 mm 4 mps 753 mmHg 66%
    15:00 +6°C° 0 mm 4 mps 753 mmHg 67%
    16:00 +6°C° 0 mm 5 mps 753 mmHg 68%
    17:00 +5°C° 0 mm 5 mps 753 mmHg 69%
    18:00 +3°C° 0 mm 5 mps 754 mmHg 70%
    19:00 +2°C° 0 mm 6 mps 754 mmHg 71%
    20:00 +1°C° 0 mm 6 mps 754 mmHg 71%
    21:00 +1°C° 0 mm 6 mps 754 mmHg 71%
    22:00 -1°C° 0 mm 6 mps 754 mmHg 71%
    23:00 -2°C° 0 mm 6 mps 755 mmHg 70%

    24 February, Saturday

    Time Temperature Precipitation Wind Pressure Humidity
    00:00 -3°C° 0 mm 6 mps 755 mmHg 70%
    01:00 -3°C° 0 mm 6 mps 755 mmHg 70%
    02:00 -4°C° 0 mm 6 mps 755 mmHg 68%
    03:00 -4°C° 0 mm 6 mps 755 mmHg 66%
    04:00 -4°C° 0 mm 6 mps 755 mmHg 64%
    05:00 -4°C° 0 mm 6 mps 755 mmHg 62%
    06:00 -4°C° 0 mm 7 mps 755 mmHg 60%
    07:00 -4°C° 0 mm 7 mps 755 mmHg 58%
    08:00 -4°C° 0 mm 7 mps 755 mmHg 54%
    09:00 -3°C° 0 mm 7 mps 755 mmHg 50%
    10:00 -2°C° 0 mm 8 mps 755 mmHg 45%
    11:00 -1°C° 0 mm 8 mps 755 mmHg 41%
    12:00 -1°C° 0 mm 8 mps 755 mmHg 37%
    13:00 0°C° 0 mm 8 mps 754 mmHg 34%
    14:00 -1°C° 0 mm 8 mps 754 mmHg 33%
    15:00 -1°C° 0 mm 8 mps 754 mmHg 33%
    16:00 -2°C° 0 mm 8 mps 754 mmHg 32%
    17:00 -4°C° 0 mm 8 mps 754 mmHg 34%
    18:00 -5°C° 0 mm 8 mps 755 mmHg 36%
    19:00 -7°C° 0 mm 8 mps 755 mmHg 37%
    20:00 -7°C° 0 mm 8 mps 755 mmHg 38%
    21:00 -7°C° 0 mm 8 mps 755 mmHg 38%
    22:00 -8°C° 0 mm 8 mps 756 mmHg 39%
    23:00 -8°C° 0 mm 8 mps 756 mmHg 38%

    25 February, Sunday

    Time Temperature Precipitation Wind Pressure Humidity
    00:00 -8°C° 0 mm 8 mps 756 mmHg 38%
    01:00 -8°C° 0 mm 8 mps 756 mmHg 38%
    02:00 -9°C° 0 mm 7 mps 756 mmHg 38%
    03:00 -9°C° 0 mm 7 mps 756 mmHg 38%
    04:00 -9°C° 0 mm 7 mps 756 mmHg 39%
    05:00 -9°C° 0 mm 7 mps 756 mmHg 39%
    06:00 -11°C° 0 mm 7 mps 756 mmHg 39%
    07:00 -11°C° 0 mm 7 mps 756 mmHg 39%
    08:00 -9°C° 0 mm 7 mps 756 mmHg 37%
    09:00 -9°C° 0 mm 7 mps 756 mmHg 36%
    10:00 -9°C° 0 mm 7 mps 756 mmHg 34%
    11:00 -8°C° 0 mm 6 mps 756 mmHg 33%
    12:00 -6°C° 0 mm 6 mps 756 mmHg 32%
    13:00 -6°C° 0 mm 5 mps 756 mmHg 31%
    14:00 -6°C° 0 mm 5 mps 756 mmHg 32%
    15:00 -5°C° 0 mm 5 mps 756 mmHg 32%
    16:00 -5°C° 0 mm 5 mps 756 mmHg 32%
    17:00 -6°C° 0 mm 5 mps 756 mmHg 34%
    18:00 -6°C° 0 mm 5 mps 756 mmHg 36%
    19:00 -7°C° 0 mm 5 mps 756 mmHg 37%
    20:00 -7°C° 0 mm 5 mps 756 mmHg 40%
    21:00 -7°C° 0 mm 5 mps 756 mmHg 42%
    22:00 -9°C° 0 mm 6 mps 756 mmHg 45%
    23:00 -8°C° 0.1 mm 5 mps 756 mmHg 48%

    26 February, Monday

    Time Temperature Precipitation Wind Pressure Humidity
    00:00 -8°C° 0.1 mm 5 mps 756 mmHg 52%
    01:00 -10°C° 0.1 mm 5 mps 756 mmHg 56%
    02:00 -10°C° 0.1 mm 5 mps 756 mmHg 59%
    03:00 -10°C° 0.1 mm 5 mps 755 mmHg 63%
    04:00 -10°C° 0.1 mm 5 mps 755 mmHg 66%
    05:00 -10°C° 0.1 mm 5 mps 755 mmHg 68%
    06:00 -10°C° 0.1 mm 5 mps 755 mmHg 69%
    07:00 -10°C° 0.1 mm 5 mps 755 mmHg 71%
    08:00 -9°C° 0.1 mm 4 mps 755 mmHg 71%
    09:00 -8°C° 0.1 mm 4 mps 755 mmHg 71%
    10:00 -8°C° 0.1 mm 4 mps 754 mmHg 71%
    11:00 -7°C° 0.1 mm 4 mps 754 mmHg 70%
    12:00 -7°C° 0.1 mm 4 mps 753 mmHg 70%
    13:00 -6°C° 0.1 mm 5 mps 753 mmHg 69%
    14:00 -6°C° 0.1 mm 5 mps 753 mmHg 70%
    15:00 -6°C° 0.1 mm 5 mps 752 mmHg 71%
    16:00 -6°C° 0.1 mm 5 mps 752 mmHg 72%
    17:00 -6°C° 0.2 mm 5 mps 752 mmHg 75%
    18:00 -7°C° 0.2 mm 5 mps 752 mmHg 77%
    19:00 -7°C° 0.2 mm 5 mps 752 mmHg 79%
    20:00 -8°C° 0.2 mm 5 mps 752 mmHg 80%
    21:00 -8°C° 0.2 mm 5 mps 752 mmHg 80%
    22:00 -8°C° 0.2 mm 5 mps 752 mmHg 80%
    23:00 -8°C° 0.2 mm 5 mps 751 mmHg 81%
    Show more